Current weather by "City, St" or "zip code"  
 
Advertise Here

Current Conditions: Pittsburgh - Allegheny County Airport, PA

Overcast


29.0 F

Last Updated on Jan 27 2021, 1:53 pm EST
Humidity: 69%
Wind Speed: N 6.9 mph
Barometer 30.14 in
Dewpoint: 19.9 F
Visibility: 10.00 mi
Precip: --
Heat Index: NA
Wind Chill: 22 F
Current conditions at:

Pittsburgh - Allegheny County Airport, PA (KAGC)

Lat: 40.35521 Lon: 79.92144

Local Radar Image active severe weather and emergency alerts image image weather storm and storm spotter reports image weather observation monitoring service image
Local
Radar
Active
Alerts
Storm Reports Obs
Monitoring

Sign-up For Email & Text Message Weather Alert Notification Services


Advertise Here

Observation History for Pittsburgh - Allegheny County Airport, PA


Time Wind
(mph)
Vis
(mi)
Weather Precip (in) Temperature (F) Relative
Humidity
Wind
Chill
(F)
Heat
Index
(F)
Pressure
Air Dwpt altimeter
(in)
sea level
(mb)
Rmks
1:53 pm EST N 6.9 10.00 Overcast -- 29.0 19.9 69% 22 NA 30.14 1022.6
12:53 pm EST NW 6.9 10.00 Overcast -- 29.0 19.9 69% 22 NA 30.16 1022.9
11:53 am EST N 4.6 10.00 Overcast -- 29.0 19.9 69% 24 NA 30.18 1023.6
10:53 am EST N 11.5 G 18.4 10.00 Overcast -- 28.0 19.9 72% 18 NA 30.18 1023.7
9:53 am EST NW 11.5 G 18.4 10.00 Overcast -- 29.0 21.0 72% 19 NA 30.15 1022.7
8:53 am EST NW 5.8 10.00 Overcast -- 29.0 21.9 75% 23 NA 30.12 1021.4
7:53 am EST N 4.6 10.00 Overcast -- 29.0 21.0 72% 24 NA 30.13 1021.9
6:53 am EST NW 10.4 G 18.4 10.00 Overcast -- 30.0 21.9 72% 21 NA 30.11 1021.2
5:53 am EST NW 9.2 10.00 Overcast -- 30.0 25.0 82% 22 NA 30.08 1020.2
4:53 am EST NW 9.2 10.00 Overcast -- 30.0 26.1 85% 22 NA 30.07 1019.6
3:53 am EST NW 9.2 10.00 Overcast -- 31.0 26.1 82% 23 NA 30.04 1018.7
2:53 am EST NW 12.7 G 24.2 10.00 Overcast -- 32.0 27.0 82% 22 NA 30.01 1017.7
1:53 am EST NW 9.2 G 20.7 10.00 Overcast -- 33.0 28.0 82% 25 NA 29.97 1016.2
12:53 am EST 5.8 10.00 Overcast -- 34.0 30.0 85% 29 NA 29.94 1015.1
11:53 pm EST NW 9.2 10.00 Overcast -- 35.0 30.9 85% 28 NA 29.91 1014.3
10:53 pm EST NW 9.2 G 19.6 10.00 Overcast -- 36.0 32.0 86% 29 NA 29.88 1013.3
9:53 pm EST W 12.7 G 20.7 10.00 Overcast -- 38.0 32.0 79% 30 NA 29.87 1012.8
8:53 pm EST NW 11.5 G 27.6 10.00 Overcast Trace 39.0 34.0 82% 32 NA 29.84 1012.0
7:53 pm EST W 15.0 G 31.1 10.00 Overcast Trace 40.0 35.1 83% 32 NA 29.82 1011.0
6:53 pm EST SW 11.5 G 20.7 10.00 Overcast -- 41.0 35.1 79% 34 NA 29.80 1010.5
5:53 pm EST SW 13.8 G 20.7 10.00 Overcast -- 41.0 35.1 79% 33 NA 29.78 1009.9
4:53 pm EST W 16.1 G 23.0 10.00 Overcast Trace 41.0 35.1 79% 33 NA 29.76 1009.3
3:53 pm EST SW 24.2 G 41.4 10.00 Overcast and Breezy Trace 43.0 34.0 71% 34 NA 29.74 1008.5
2:53 pm EST SW 12.7 G 23.0 10.00 Overcast -- 44.0 39.0 83% 38 NA 29.71 1007.2

Regional Weather Observation


Unknown Station (KPJC)

Overcast
32.0 F

Beaver County Airport, PA (KBVI)

Overcast
31.0 F

Butler, Butler County Airport/K W Scholter Field, PA (KBTP)

Overcast
29.0 F

Pittsburgh - Allegheny County Airport, PA (KAGC)

Overcast
29.0 F

Washington - Washington County Airport, PA (KAFJ)

Overcast
29.0 F

Wheeling, Wheeling Ohio County Airport, WV (KHLG)

Overcast
30.0 F